Location: Harwich
(41.7160°N, 69.9939°W)
Time: 12:57:07
(UTC+01:00)

A-11 Canister half - Pass Details

Date: 29 November 2023
Orbit: 1526 x 1682 km, 47.3° (Epoch: 01 March)

Event Time Altitude Azimuth Distance (km) Brightness Sun altitude
Rises 07:42:43 0° 295° (WNW) 4,887 - -55.2°
Reaches altitude 10° 07:45:54 10° 295° (WNW) 3,880 - -54.7°
Maximum altitude 07:55:48 85° 210° (SSW) 1,608 - -53.0°
Exits shadow 08:03:06 20° 122° (ESE) 3,044 10.7 -51.7°
Drops below altitude 10° 08:05:21 10° 122° (ESE) 3,746 11.3 -51.3°
Sets 08:08:22 0° 122° (ESE) 4,711 11.9 -50.8°
